Flag for U.S.A. Weather past 2 weeks in Thousand Oaks, California, U.S.A.

Now
54 °F

Clear.


Feels Like: 52 °F
Forecast: 39 / 57 °F
Wind: 7 mph from Northeast

Location: Camarillo Airport

Current Time: Dec 25, 2014 at 1:24:34 AM

Latest Report: Dec 25, 2014 at 12:55 AM


Visibility: 10 mi

Pressure: 29.83 "Hg

Humidity: 86%

Dew point: 50 °F

Location of Thousand OaksLocation

Historic Weather in Thousand Oaks — Graph

°F

Thousand Oaks temperature yesterday

Maximum temperature yesterday: 72 °F (at 11:55 AM)
Minimum temperature yesterday: 49 °F (at 5:55 AM)
Average temperature yesterday: 61 °F

Past Weeks' High & Low Weather Summary

 TemperatureHumidityPressure
High83 °F (Dec 23, 12:55 PM)93% (Dec 10, 10:55 PM)30.27 "Hg (Dec 10, 10:55 PM)
Low43 °F (Dec 13, 6:55 AM)20% (Dec 23, 1:55 PM)29.79 "Hg (Dec 12, 12:55 AM)
Average58 °F72%30.06 "Hg
* Reported Dec 9 11:55 PM — Dec 24 11:55 PM, Thousand Oaks, Weather by CustomWeather, © 2014

Note: Actual official high and low records may vary slightly from our data, if they occured in-between our weather recording intervals... More about our weather records

Advertising

Thousand Oaks weather history for previous 24 hours

 ConditionsComfort  
Time TempWeatherWind HumidityBarometerVisibility
11:55 PM
Dec 24
59 °FPassing clouds.8 mph75%29.83 "Hg10 mi
11:03 PM58 °FPassing clouds.No wind81%29.81 "Hg10 mi
9:55 PM56 °FPassing clouds.3 mph90%29.85 "Hg8 mi
8:55 PM56 °FClear.7 mph90%29.87 "Hg9 mi
7:55 PM58 °FPassing clouds.No wind87%29.90 "Hg10 mi
6:55 PM59 °FClear.3 mph90%29.90 "Hg10 mi
5:55 PM62 °FClear.No wind83%29.91 "Hg10 mi
4:55 PM63 °FClear.5 mph81%29.93 "Hg10 mi
3:55 PM66 °FSunny.9 mph59%29.94 "Hg10 mi
2:55 PM70 °FSunny.10 mph35%29.96 "Hg10 mi
1:55 PM69 °FSunny.8 mph45%29.96 "Hg10 mi
12:55 PM72 °FSunny.8 mph35%29.99 "Hg10 mi
11:55 AM72 °FSunny.3 mph35%30.02 "Hg10 mi
10:55 AM70 °FSunny.5 mph47%30.06 "Hg10 mi
9:55 AM69 °FSunny.5 mph36%30.08 "Hg10 mi
8:55 AM57 °FSunny.No wind67%30.09 "Hg10 mi
7:55 AM54 °FSunny.No wind64%30.09 "Hg10 mi
6:55 AM52 °FClear.3 mph66%30.09 "Hg10 mi
5:55 AM49 °FClear.3 mph74%30.09 "Hg10 mi
4:55 AM51 °FClear.No wind71%30.08 "Hg10 mi
3:55 AM53 °FClear.3 mph66%30.08 "Hg10 mi
2:55 AM58 °FClear.7 mph51%30.09 "Hg10 mi
1:55 AM62 °FClear.12 mph43%30.07 "Hg10 mi
Weather by CustomWeather, © 2014

See weather overviewHow to use our weather pages